Regional Weather Roundup
Issued by NWS

Home | Current Version | Previous Version | Graphics & Text | Print | Product List | Glossary On
Versions: 1 2 3 4 5 6 7 8 9 10 11 12 13 14 15 16 17 18 19 20 21 22 23 24 25 26 27 28 29 30 31 32 33 34 35 36 37 38 39 40 41 42 43 44 45 46 47 48 49 50
000
ASUS43 KLMK 160910
RWRKY
KENTUCKY REGIONAL WEATHER ROUNDUP
NATIONAL WEATHER SERVICE LOUISVILLE KY
400 AM EST SAT DEC 16 2017

NOTE "FAIR" INDICATES FEW OR NO CLOUDS BELOW 12,000 FEET
WITH NO SIGNIFICANT WEATHER AND/OR OBSTRUCTIONS TO VISIBILITY.

KYZ001>023-026-027-061>063-070>075-161000-
WESTERN AND SOUTH CENTRAL KENTUCKY

CITY           SKY/WX    TMP DP  RH WIND       PRES   REMARKS
PADUCAH        PTCLDY    34  25  69 S7        30.14S WCI  28
HENDERSON      CLEAR     32  27  81 SW8       30.14R WCI  25
OWENSBORO      CLEAR     31  26  82 S7        30.14S WCI  24
HOPKINSVILLE   PTCLDY    33  25  72 S9        30.17S WCI  25
BOWLING GREEN  CLEAR     32  25  75 S8        30.19S WCI  25
GLASGOW        CLEAR     30  24  78 S6        30.18F WCI  24
$$

KYZ024-025-028>034-038-045-046-053-161000-
NORTH CENTRAL KENTUCKY

CITY           SKY/WX    TMP DP  RH WIND       PRES   REMARKS
LOUISVILLE/SDF CLEAR     37  25  61 S10       30.12F WCI  30
LOUISVILLE/LOU CLEAR     34  25  69 S7        30.13F WCI  28
FORT KNOX      CLEAR     32  23  69 S10       30.11F WCI  24
$$

KYZ035>037-039>044-047>052-055>060-089>105-161000-
NORTHEAST KENTUCKY

CITY           SKY/WX    TMP DP  RH WIND       PRES   REMARKS
LEXINGTON      CLOUDY    33  23  66 S10       30.13F WCI  25
COVINGTON      CLOUDY    32  25  75 S8        30.08S WCI  25
FRANKFORT      CLOUDY    35  22  58 SW13      30.11F WCI  26
$$

KYZ054-064>069-076>088-106>120-161000-
SOUTHEAST KENTUCKY

CITY           SKY/WX    TMP DP  RH WIND       PRES   REMARKS
JACKSON        MOCLDY    30  21  69 VRB7      30.15F WCI  23
LONDON         CLEAR     27  20  75 S3        30.19S
SOMERSET       CLOUDY    30  23  74 S5        30.21F WCI  25
MIDDLESBORO    CLEAR     24  22  91 CALM      30.22S
MONTICELLO     SUNNY     21  18  88 N8        30.22F WCI  11
$$





USA.gov is the U.S. government's official web portal to all federal, state and local government web resources and services.